owner,sensor,date,latitude,longitude,vertical_datum,sea_water_practical_salinity,qcFlag 
DISL,ioos:station:DISL:PPTA:1,2014-09-01T00:00:00Z,30.2791,-87.5561,1.403,27.07,1111122 
DISL,ioos:station:DISL:PPTA:1,2014-09-01T00:30:00Z,30.2791,-87.5561,1.415,29.14,1111122 
DISL,ioos:station:DISL:PPTA:1,2014-09-01T01:00:00Z,30.2791,-87.5561,1.42,29.27,1111122 
DISL,ioos:station:DISL:PPTA:1,2014-09-01T01:30:00Z,30.2791,-87.5561,1.424,30.58,1111122 
DISL,ioos:station:DISL:PPTA:1,2014-09-01T02:00:00Z,30.2791,-87.5561,1.439,29.81,1111122 
DISL,ioos:station:DISL:PPTA:1,2014-09-01T02:30:00Z,30.2791,-87.5561,1.46,30.8,1111122 
DISL,ioos:station:DISL:PPTA:1,2014-09-01T03:00:00Z,30.2791,-87.5561,1.46,30.75,1111122 
DISL,ioos:station:DISL:PPTA:1,2014-09-01T03:30:00Z,30.2791,-87.5561,1.475,30.59,1111122 
DISL,ioos:station:DISL:PPTA:1,2014-09-01T04:00:00Z,30.2791,-87.5561,1.476,30.7,1111122 
DISL,ioos:station:DISL:PPTA:1,2014-09-01T04:30:00Z,30.2791,-87.5561,1.498,31.48,1111122 
DISL,ioos:station:DISL:PPTA:1,2014-09-01T05:00:00Z,30.2791,-87.5561,1.506,31.22,1111122 
DISL,ioos:station:DISL:PPTA:1,2014-09-01T05:30:00Z,30.2791,-87.5561,1.512,31.47,1111122 
DISL,ioos:station:DISL:PPTA:1,2014-09-01T06:00:00Z,30.2791,-87.5561,1.531,31.43,1111122 
DISL,ioos:station:DISL:PPTA:1,2014-09-01T06:30:00Z,30.2791,-87.5561,1.542,31.51,1111122 
DISL,ioos:station:DISL:PPTA:1,2014-09-01T07:00:00Z,30.2791,-87.5561,1.554,31.42,1111122 
DISL,ioos:station:DISL:PPTA:1,2014-09-01T07:30:00Z,30.2791,-87.5561,1.553,31.49,1111122 
DISL,ioos:station:DISL:PPTA:1,2014-09-01T08:00:00Z,30.2791,-87.5561,1.558,31.49,1111122 
DISL,ioos:station:DISL:PPTA:1,2014-09-01T08:30:00Z,30.2791,-87.5561,1.549,31.41,1111122 
DISL,ioos:station:DISL:PPTA:1,2014-09-01T09:00:00Z,30.2791,-87.5561,1.578,31.46,1111122 
DISL,ioos:station:DISL:PPTA:1,2014-09-01T09:30:00Z,30.2791,-87.5561,1.558,31.48,1111122 
DISL,ioos:station:DISL:PPTA:1,2014-09-01T10:00:00Z,30.2791,-87.5561,1.533,31.07,1111122 
DISL,ioos:station:DISL:PPTA:1,2014-09-01T10:30:00Z,30.2791,-87.5561,1.543,30.55,1111122 
DISL,ioos:station:DISL:PPTA:1,2014-09-01T11:00:00Z,30.2791,-87.5561,1.519,31.36,1111122 
DISL,ioos:station:DISL:PPTA:1,2014-09-01T11:30:00Z,30.2791,-87.5561,1.516,28.42,1111122 
DISL,ioos:station:DISL:PPTA:1,2014-09-01T12:00:00Z,30.2791,-87.5561,1.515,28.53,1111122 
DISL,ioos:station:DISL:PPTA:1,2014-09-01T12:30:00Z,30.2791,-87.5561,1.5,30.58,1111122 
DISL,ioos:station:DISL:PPTA:1,2014-09-01T13:00:00Z,30.2791,-87.5561,1.507,29.35,1111122 
DISL,ioos:station:DISL:PPTA:1,2014-09-01T13:30:00Z,30.2791,-87.5561,1.485,29.38,1111122 
DISL,ioos:station:DISL:PPTA:1,2014-09-01T14:00:00Z,30.2791,-87.5561,1.472,28.89,1111122 
DISL,ioos:station:DISL:PPTA:1,2014-09-01T14:30:00Z,30.2791,-87.5561,1.459,27.55,1111122 
DISL,ioos:station:DISL:PPTA:1,2014-09-01T15:00:00Z,30.2791,-87.5561,1.446,29.2,1111122 
DISL,ioos:station:DISL:PPTA:1,2014-09-01T15:30:00Z,30.2791,-87.5561,1.455,27.58,1111122 
DISL,ioos:station:DISL:PPTA:1,2014-09-01T16:00:00Z,30.2791,-87.5561,1.447,27.38,1111122 
DISL,ioos:station:DISL:PPTA:1,2014-09-01T16:30:00Z,30.2791,-87.5561,1.407,26.47,1111122 
DISL,ioos:station:DISL:PPTA:1,2014-09-01T17:00:00Z,30.2791,-87.5561,1.4,26.46,1111122 
DISL,ioos:station:DISL:PPTA:1,2014-09-01T17:30:00Z,30.2791,-87.5561,1.384,26.01,1111122 
DISL,ioos:station:DISL:PPTA:1,2014-09-01T18:00:00Z,30.2791,-87.5561,1.371,25.66,1111122 
DISL,ioos:station:DISL:PPTA:1,2014-09-01T18:30:00Z,30.2791,-87.5561,1.387,25.07,1111122 
DISL,ioos:station:DISL:PPTA:1,2014-09-01T19:00:00Z,30.2791,-87.5561,1.359,24.67,1111122 
DISL,ioos:station:DISL:PPTA:1,2014-09-01T19:30:00Z,30.2791,-87.5561,1.373,24.66,1111122 
DISL,ioos:station:DISL:PPTA:1,2014-09-01T20:00:00Z,30.2791,-87.5561,1.364,24.45,1111122 
DISL,ioos:station:DISL:PPTA:1,2014-09-01T20:30:00Z,30.2791,-87.5561,1.345,24.48,1111122 
DISL,ioos:station:DISL:PPTA:1,2014-09-01T21:00:00Z,30.2791,-87.5561,1.362,24.37,1111122 
DISL,ioos:station:DISL:PPTA:1,2014-09-01T21:30:00Z,30.2791,-87.5561,1.363,23.73,1111122 
DISL,ioos:station:DISL:PPTA:1,2014-09-01T22:00:00Z,30.2791,-87.5561,1.364,26.19,1111122 
DISL,ioos:station:DISL:PPTA:1,2014-09-01T22:30:00Z,30.2791,-87.5561,1.345,25.3,1111122 
DISL,ioos:station:DISL:PPTA:1,2014-09-01T23:00:00Z,30.2791,-87.5561,1.363,26.45,1111122 
DISL,ioos:station:DISL:PPTA:1,2014-09-01T23:30:00Z,30.2791,-87.5561,1.391,25.07,1111122 
DISL,ioos:station:DISL:PPTA:1,2014-09-02T00:00:00Z,30.2791,-87.5561,1.365,26.46,1111122 
DISL,ioos:station:DISL:PPTA:1,2014-09-02T00:30:00Z,30.2791,-87.5561,1.362,26.76,1111122 
DISL,ioos:station:DISL:PPTA:1,2014-09-02T01:00:00Z,30.2791,-87.5561,1.365,29.32,1111122 
DISL,ioos:station:DISL:PPTA:1,2014-09-02T01:30:00Z,30.2791,-87.5561,1.397,29.86,1111122 
DISL,ioos:station:DISL:PPTA:1,2014-09-02T02:00:00Z,30.2791,-87.5561,1.405,30.01,1111122 
DISL,ioos:station:DISL:PPTA:1,2014-09-02T02:30:00Z,30.2791,-87.5561,1.422,29.65,1111122 
DISL,ioos:station:DISL:PPTA:1,2014-09-02T03:00:00Z,30.2791,-87.5561,1.423,31.15,1111122 
DISL,ioos:station:DISL:PPTA:1,2014-09-02T03:30:00Z,30.2791,-87.5561,1.432,30.4,1111122 
DISL,ioos:station:DISL:PPTA:1,2014-09-02T04:00:00Z,30.2791,-87.5561,1.474,30.97,1111122 
DISL,ioos:station:DISL:PPTA:1,2014-09-02T04:30:00Z,30.2791,-87.5561,1.491,30.4,1111122 
DISL,ioos:station:DISL:PPTA:1,2014-09-02T05:00:00Z,30.2791,-87.5561,1.488,29.7,1111122 
DISL,ioos:station:DISL:PPTA:1,2014-09-02T05:30:00Z,30.2791,-87.5561,1.519,30.91,1111122 
DISL,ioos:station:DISL:PPTA:1,2014-09-02T06:00:00Z,30.2791,-87.5561,1.527,31.56,1111122 
DISL,ioos:station:DISL:PPTA:1,2014-09-02T06:30:00Z,30.2791,-87.5561,1.539,31.46,1111122 
DISL,ioos:station:DISL:PPTA:1,2014-09-02T07:00:00Z,30.2791,-87.5561,1.545,31.64,1111122 
DISL,ioos:station:DISL:PPTA:1,2014-09-02T07:30:00Z,30.2791,-87.5561,1.546,31.17,1111122 
DISL,ioos:station:DISL:PPTA:1,2014-09-02T08:00:00Z,30.2791,-87.5561,1.553,31.02,1111122 
DISL,ioos:station:DISL:PPTA:1,2014-09-02T08:30:00Z,30.2791,-87.5561,1.543,31.32,1111122 
DISL,ioos:station:DISL:PPTA:1,2014-09-02T09:00:00Z,30.2791,-87.5561,1.554,30.73,1111122 
DISL,ioos:station:DISL:PPTA:1,2014-09-02T09:30:00Z,30.2791,-87.5561,1.562,30.46,1111122 
DISL,ioos:station:DISL:PPTA:1,2014-09-02T10:00:00Z,30.2791,-87.5561,1.552,30.48,1111122 
DISL,ioos:station:DISL:PPTA:1,2014-09-02T10:30:00Z,30.2791,-87.5561,1.552,30.18,1111122 
DISL,ioos:station:DISL:PPTA:1,2014-09-02T11:00:00Z,30.2791,-87.5561,1.526,30.82,1111122 
DISL,ioos:station:DISL:PPTA:1,2014-09-02T11:30:00Z,30.2791,-87.5561,1.53,31.41,1111122 
DISL,ioos:station:DISL:PPTA:1,2014-09-02T12:00:00Z,30.2791,-87.5561,1.526,31.64,1111122 
DISL,ioos:station:DISL:PPTA:1,2014-09-02T12:30:00Z,30.2791,-87.5561,1.5,29.69,1111122 
DISL,ioos:station:DISL:PPTA:1,2014-09-02T13:00:00Z,30.2791,-87.5561,1.481,30.38,1111122 
DISL,ioos:station:DISL:PPTA:1,2014-09-02T13:30:00Z,30.2791,-87.5561,1.479,30.27,1111122 
DISL,ioos:station:DISL:PPTA:1,2014-09-02T14:00:00Z,30.2791,-87.5561,1.459,29.22,1111122 
DISL,ioos:station:DISL:PPTA:1,2014-09-02T14:30:00Z,30.2791,-87.5561,1.442,29.13,1111122 
DISL,ioos:station:DISL:PPTA:1,2014-09-02T15:00:00Z,30.2791,-87.5561,1.445,28.23,1111122 
DISL,ioos:station:DISL:PPTA:1,2014-09-02T15:30:00Z,30.2791,-87.5561,1.428,28.48,1111122 
DISL,ioos:station:DISL:PPTA:1,2014-09-02T16:00:00Z,30.2791,-87.5561,1.409,27.55,1111122 
DISL,ioos:station:DISL:PPTA:1,2014-09-02T16:30:00Z,30.2791,-87.5561,1.389,28.07,1111122 
DISL,ioos:station:DISL:PPTA:1,2014-09-02T17:00:00Z,30.2791,-87.5561,1.372,27.25,1111122 
DISL,ioos:station:DISL:PPTA:1,2014-09-02T17:30:00Z,30.2791,-87.5561,1.354,27.66,1111122 
DISL,ioos:station:DISL:PPTA:1,2014-09-02T18:00:00Z,30.2791,-87.5561,1.337,28.34,1111122 
DISL,ioos:station:DISL:PPTA:1,2014-09-02T18:30:00Z,30.2791,-87.5561,1.333,25.55,1111122 
DISL,ioos:station:DISL:PPTA:1,2014-09-02T19:00:00Z,30.2791,-87.5561,1.311,27.09,1111122 
DISL,ioos:station:DISL:PPTA:1,2014-09-02T19:30:00Z,30.2791,-87.5561,1.299,24.89,1111122 
DISL,ioos:station:DISL:PPTA:1,2014-09-02T20:00:00Z,30.2791,-87.5561,1.303,24.79,1111122 
DISL,ioos:station:DISL:PPTA:1,2014-09-02T20:30:00Z,30.2791,-87.5561,1.293,24.68,1111122 
DISL,ioos:station:DISL:PPTA:1,2014-09-02T21:00:00Z,30.2791,-87.5561,1.282,24.03,1111122 
DISL,ioos:station:DISL:PPTA:1,2014-09-02T21:30:00Z,30.2791,-87.5561,1.28,24.34,1111122 
DISL,ioos:station:DISL:PPTA:1,2014-09-02T22:00:00Z,30.2791,-87.5561,1.286,23.4,1111122 
DISL,ioos:station:DISL:PPTA:1,2014-09-02T22:30:00Z,30.2791,-87.5561,1.311,22.86,1111122 
DISL,ioos:station:DISL:PPTA:1,2014-09-02T23:00:00Z,30.2791,-87.5561,1.298,24.5,1111122 
DISL,ioos:station:DISL:PPTA:1,2014-09-02T23:30:00Z,30.2791,-87.5561,1.306,25.73,1111122 
DISL,ioos:station:DISL:PPTA:1,2014-09-03T00:00:00Z,30.2791,-87.5561,1.308,24.43,1111122 
DISL,ioos:station:DISL:PPTA:1,2014-09-03T00:30:00Z,30.2791,-87.5561,1.311,26.64,1111122 
DISL,ioos:station:DISL:PPTA:1,2014-09-03T01:00:00Z,30.2791,-87.5561,1.33,25.67,1111122 
DISL,ioos:station:DISL:PPTA:1,2014-09-03T01:30:00Z,30.2791,-87.5561,1.331,25.18,1111122 
DISL,ioos:station:DISL:PPTA:1,2014-09-03T02:00:00Z,30.2791,-87.5561,1.325,28.65,1111122 
DISL,ioos:station:DISL:PPTA:1,2014-09-03T02:30:00Z,30.2791,-87.5561,1.328,29.15,1111122 
DISL,ioos:station:DISL:PPTA:1,2014-09-03T03:00:00Z,30.2791,-87.5561,1.353,29.96,1111122 
DISL,ioos:station:DISL:PPTA:1,2014-09-03T03:30:00Z,30.2791,-87.5561,1.357,30.69,1111122 
DISL,ioos:station:DISL:PPTA:1,2014-09-03T04:00:00Z,30.2791,-87.5561,1.368,29.36,1111122 
DISL,ioos:station:DISL:PPTA:1,2014-09-03T04:30:00Z,30.2791,-87.5561,1.391,30.36,1111122 
DISL,ioos:station:DISL:PPTA:1,2014-09-03T05:00:00Z,30.2791,-87.5561,1.411,30.25,1111122 
DISL,ioos:station:DISL:PPTA:1,2014-09-03T05:30:00Z,30.2791,-87.5561,1.434,29.99,1111122 
DISL,ioos:station:DISL:PPTA:1,2014-09-03T06:00:00Z,30.2791,-87.5561,1.453,29.49,1111122 
DISL,ioos:station:DISL:PPTA:1,2014-09-03T06:30:00Z,30.2791,-87.5561,1.469,30.91,1111122 
DISL,ioos:station:DISL:PPTA:1,2014-09-03T07:00:00Z,30.2791,-87.5561,1.477,31.73,1111122 
DISL,ioos:station:DISL:PPTA:1,2014-09-03T07:30:00Z,30.2791,-87.5561,1.465,32.13,1111122 
DISL,ioos:station:DISL:PPTA:1,2014-09-03T08:00:00Z,30.2791,-87.5561,1.471,32.01,1111122 
DISL,ioos:station:DISL:PPTA:1,2014-09-03T08:30:00Z,30.2791,-87.5561,1.507,32.22,1111122 
DISL,ioos:station:DISL:PPTA:1,2014-09-03T09:00:00Z,30.2791,-87.5561,1.523,32.41,1111122 
DISL,ioos:station:DISL:PPTA:1,2014-09-03T09:30:00Z,30.2791,-87.5561,1.512,32.32,1111122 
DISL,ioos:station:DISL:PPTA:1,2014-09-03T10:00:00Z,30.2791,-87.5561,1.546,32.46,1111122 
DISL,ioos:station:DISL:PPTA:1,2014-09-03T10:30:00Z,30.2791,-87.5561,1.547,31.21,1111122 
DISL,ioos:station:DISL:PPTA:1,2014-09-03T11:00:00Z,30.2791,-87.5561,1.533,32.13,1111122 
DISL,ioos:station:DISL:PPTA:1,2014-09-03T11:30:00Z,30.2791,-87.5561,1.542,30.32,1111122 
DISL,ioos:station:DISL:PPTA:1,2014-09-03T12:00:00Z,30.2791,-87.5561,1.494,30.02,1111122 
DISL,ioos:station:DISL:PPTA:1,2014-09-03T12:30:00Z,30.2791,-87.5561,1.49,30.18,1111122 
DISL,ioos:station:DISL:PPTA:1,2014-09-03T13:00:00Z,30.2791,-87.5561,1.448,30.25,1111122 
DISL,ioos:station:DISL:PPTA:1,2014-09-03T13:30:00Z,30.2791,-87.5561,1.481,28.29,1111122 
DISL,ioos:station:DISL:PPTA:1,2014-09-03T14:00:00Z,30.2791,-87.5561,1.466,29.32,1111122 
DISL,ioos:station:DISL:PPTA:1,2014-09-03T14:30:00Z,30.2791,-87.5561,1.455,29.13,1111122 
DISL,ioos:station:DISL:PPTA:1,2014-09-03T15:00:00Z,30.2791,-87.5561,1.443,30.19,1111122 
DISL,ioos:station:DISL:PPTA:1,2014-09-03T15:30:00Z,30.2791,-87.5561,1.419,29.39,1111122 
DISL,ioos:station:DISL:PPTA:1,2014-09-03T16:00:00Z,30.2791,-87.5561,1.395,28.18,1111122 
DISL,ioos:station:DISL:PPTA:1,2014-09-03T16:30:00Z,30.2791,-87.5561,1.383,27.15,1111122 
DISL,ioos:station:DISL:PPTA:1,2014-09-03T17:00:00Z,30.2791,-87.5561,1.361,27.39,1111122 
DISL,ioos:station:DISL:PPTA:1,2014-09-03T17:30:00Z,30.2791,-87.5561,1.345,27.24,1111122 
DISL,ioos:station:DISL:PPTA:1,2014-09-03T18:00:00Z,30.2791,-87.5561,1.339,26.24,1111122 
DISL,ioos:station:DISL:PPTA:1,2014-09-03T18:30:00Z,30.2791,-87.5561,1.325,26.69,1111122 
DISL,ioos:station:DISL:PPTA:1,2014-09-03T19:00:00Z,30.2791,-87.5561,1.294,26.81,1111122 
DISL,ioos:station:DISL:PPTA:1,2014-09-03T19:30:00Z,30.2791,-87.5561,1.285,25.68,1111122 
DISL,ioos:station:DISL:PPTA:1,2014-09-03T20:00:00Z,30.2791,-87.5561,1.271,25.37,1111122 
DISL,ioos:station:DISL:PPTA:1,2014-09-03T20:30:00Z,30.2791,-87.5561,1.275,24.12,1111122 
DISL,ioos:station:DISL:PPTA:1,2014-09-03T21:00:00Z,30.2791,-87.5561,1.274,23.9,1111122 
DISL,ioos:station:DISL:PPTA:1,2014-09-03T21:30:00Z,30.2791,-87.5561,1.256,23.55,1111122 
DISL,ioos:station:DISL:PPTA:1,2014-09-03T22:00:00Z,30.2791,-87.5561,1.263,23.54,1111122 
DISL,ioos:station:DISL:PPTA:1,2014-09-03T22:30:00Z,30.2791,-87.5561,1.25,23.36,1111122 
DISL,ioos:station:DISL:PPTA:1,2014-09-03T23:00:00Z,30.2791,-87.5561,1.274,22.41,1111122 
DISL,ioos:station:DISL:PPTA:1,2014-09-03T23:30:00Z,30.2791,-87.5561,1.271,22.44,1111122 
DISL,ioos:station:DISL:PPTA:1,2014-09-04T00:00:00Z,30.2791,-87.5561,1.281,24.74,1111122 
DISL,ioos:station:DISL:PPTA:1,2014-09-04T00:30:00Z,30.2791,-87.5561,1.286,23.97,1111122 
DISL,ioos:station:DISL:PPTA:1,2014-09-04T01:00:00Z,30.2791,-87.5561,1.282,26.44,1111122 
DISL,ioos:station:DISL:PPTA:1,2014-09-04T01:30:00Z,30.2791,-87.5561,1.275,25.63,1111122 
DISL,ioos:station:DISL:PPTA:1,2014-09-04T02:00:00Z,30.2791,-87.5561,1.281,24.02,1111122 
DISL,ioos:station:DISL:PPTA:1,2014-09-04T02:30:00Z,30.2791,-87.5561,1.289,27.71,1111122 
DISL,ioos:station:DISL:PPTA:1,2014-09-04T03:00:00Z,30.2791,-87.5561,1.319,31.24,1111122 
DISL,ioos:station:DISL:PPTA:1,2014-09-04T03:30:00Z,30.2791,-87.5561,1.34,30.82,1111122 
DISL,ioos:station:DISL:PPTA:1,2014-09-04T04:00:00Z,30.2791,-87.5561,1.338,31.38,1111122 
DISL,ioos:station:DISL:PPTA:1,2014-09-04T04:30:00Z,30.2791,-87.5561,1.354,31.92,1111122 
DISL,ioos:station:DISL:PPTA:1,2014-09-04T05:00:00Z,30.2791,-87.5561,1.357,32.02,1111122 
DISL,ioos:station:DISL:PPTA:1,2014-09-04T05:30:00Z,30.2791,-87.5561,1.38,32.05,1111122 
DISL,ioos:station:DISL:PPTA:1,2014-09-04T06:00:00Z,30.2791,-87.5561,1.407,32.32,1111122 
DISL,ioos:station:DISL:PPTA:1,2014-09-04T06:30:00Z,30.2791,-87.5561,1.438,32.38,1111122 
DISL,ioos:station:DISL:PPTA:1,2014-09-04T07:00:00Z,30.2791,-87.5561,1.449,32.43,1111122 
DISL,ioos:station:DISL:PPTA:1,2014-09-04T07:30:00Z,30.2791,-87.5561,1.469,32.54,1111122 
DISL,ioos:station:DISL:PPTA:1,2014-09-04T08:00:00Z,30.2791,-87.5561,1.481,32.57,1111122 
DISL,ioos:station:DISL:PPTA:1,2014-09-04T08:30:00Z,30.2791,-87.5561,1.511,32.55,1111122 
DISL,ioos:station:DISL:PPTA:1,2014-09-04T09:00:00Z,30.2791,-87.5561,1.515,32.69,1111122 
DISL,ioos:station:DISL:PPTA:1,2014-09-04T09:30:00Z,30.2791,-87.5561,1.516,32.62,1111122 
DISL,ioos:station:DISL:PPTA:1,2014-09-04T10:00:00Z,30.2791,-87.5561,1.53,32.64,1111122 
DISL,ioos:station:DISL:PPTA:1,2014-09-04T10:30:00Z,30.2791,-87.5561,1.527,31.57,1111122 
DISL,ioos:station:DISL:PPTA:1,2014-09-04T11:00:00Z,30.2791,-87.5561,1.526,30.48,1111122 
DISL,ioos:station:DISL:PPTA:1,2014-09-04T11:30:00Z,30.2791,-87.5561,1.549,30.37,1111122 
DISL,ioos:station:DISL:PPTA:1,2014-09-04T12:00:00Z,30.2791,-87.5561,1.541,30.36,1111122 
DISL,ioos:station:DISL:PPTA:1,2014-09-04T12:30:00Z,30.2791,-87.5561,1.529,30.1,1111122 
DISL,ioos:station:DISL:PPTA:1,2014-09-04T13:00:00Z,30.2791,-87.5561,1.539,30.31,1111122 
DISL,ioos:station:DISL:PPTA:1,2014-09-04T13:30:00Z,30.2791,-87.5561,1.532,28.14,1111122 
DISL,ioos:station:DISL:PPTA:1,2014-09-04T14:00:00Z,30.2791,-87.5561,1.513,30.2,1111122 
DISL,ioos:station:DISL:PPTA:1,2014-09-04T14:30:00Z,30.2791,-87.5561,1.491,30.16,1111122 
DISL,ioos:station:DISL:PPTA:1,2014-09-04T15:00:00Z,30.2791,-87.5561,1.477,29.86,1111122 
DISL,ioos:station:DISL:PPTA:1,2014-09-04T15:30:00Z,30.2791,-87.5561,1.467,28.74,1111122 
DISL,ioos:station:DISL:PPTA:1,2014-09-04T16:00:00Z,30.2791,-87.5561,1.447,28.65,1111122 
DISL,ioos:station:DISL:PPTA:1,2014-09-04T16:30:00Z,30.2791,-87.5561,1.44,29.72,1111122 
DISL,ioos:station:DISL:PPTA:1,2014-09-04T17:00:00Z,30.2791,-87.5561,1.412,29.35,1111122 
DISL,ioos:station:DISL:PPTA:1,2014-09-04T17:30:00Z,30.2791,-87.5561,1.4,28.33,1111122 
DISL,ioos:station:DISL:PPTA:1,2014-09-04T18:00:00Z,30.2791,-87.5561,1.392,27.8,1111122 
DISL,ioos:station:DISL:PPTA:1,2014-09-04T18:30:00Z,30.2791,-87.5561,1.366,27.03,1111122 
DISL,ioos:station:DISL:PPTA:1,2014-09-04T19:00:00Z,30.2791,-87.5561,1.349,26.73,1111122 
DISL,ioos:station:DISL:PPTA:1,2014-09-04T19:30:00Z,30.2791,-87.5561,1.342,26.52,1111122 
DISL,ioos:station:DISL:PPTA:1,2014-09-04T20:00:00Z,30.2791,-87.5561,1.326,26.36,1111122 
DISL,ioos:station:DISL:PPTA:1,2014-09-04T20:30:00Z,30.2791,-87.5561,1.315,26.52,1111122 
DISL,ioos:station:DISL:PPTA:1,2014-09-04T21:00:00Z,30.2791,-87.5561,1.287,27.52,1111122 
DISL,ioos:station:DISL:PPTA:1,2014-09-04T21:30:00Z,30.2791,-87.5561,1.277,26.08,1111122 
DISL,ioos:station:DISL:PPTA:1,2014-09-04T22:00:00Z,30.2791,-87.5561,1.264,25.62,1111122 
DISL,ioos:station:DISL:PPTA:1,2014-09-04T22:30:00Z,30.2791,-87.5561,1.262,26.37,1111122 
DISL,ioos:station:DISL:PPTA:1,2014-09-04T23:00:00Z,30.2791,-87.5561,1.257,25.44,1111122 
DISL,ioos:station:DISL:PPTA:1,2014-09-04T23:30:00Z,30.2791,-87.5561,1.273,23.42,1111122 
DISL,ioos:station:DISL:PPTA:1,2014-09-05T00:00:00Z,30.2791,-87.5561,1.263,22.86,1111122 
DISL,ioos:station:DISL:PPTA:1,2014-09-05T00:30:00Z,30.2791,-87.5561,1.261,22.52,1111122 
DISL,ioos:station:DISL:PPTA:1,2014-09-05T01:00:00Z,30.2791,-87.5561,1.284,22.73,1111122 
DISL,ioos:station:DISL:PPTA:1,2014-09-05T01:30:00Z,30.2791,-87.5561,1.3,27.54,1111122 
DISL,ioos:station:DISL:PPTA:1,2014-09-05T02:00:00Z,30.2791,-87.5561,1.286,27.0,1111122 
DISL,ioos:station:DISL:PPTA:1,2014-09-05T02:30:00Z,30.2791,-87.5561,1.292,25.66,1111122 
DISL,ioos:station:DISL:PPTA:1,2014-09-05T03:00:00Z,30.2791,-87.5561,1.292,27.59,1111122 
DISL,ioos:station:DISL:PPTA:1,2014-09-05T03:30:00Z,30.2791,-87.5561,1.286,29.31,1111122 
DISL,ioos:station:DISL:PPTA:1,2014-09-05T04:00:00Z,30.2791,-87.5561,1.315,30.45,1111122 
DISL,ioos:station:DISL:PPTA:1,2014-09-05T04:30:00Z,30.2791,-87.5561,1.303,31.1,1111122 
DISL,ioos:station:DISL:PPTA:1,2014-09-05T05:00:00Z,30.2791,-87.5561,1.313,31.54,1111122 
DISL,ioos:station:DISL:PPTA:1,2014-09-05T05:30:00Z,30.2791,-87.5561,1.337,31.94,1111122 
DISL,ioos:station:DISL:PPTA:1,2014-09-05T06:00:00Z,30.2791,-87.5561,1.353,32.16,1111122 
DISL,ioos:station:DISL:PPTA:1,2014-09-05T06:30:00Z,30.2791,-87.5561,1.371,32.14,1111122 
DISL,ioos:station:DISL:PPTA:1,2014-09-05T07:00:00Z,30.2791,-87.5561,1.41,32.43,1111122 
DISL,ioos:station:DISL:PPTA:1,2014-09-05T07:30:00Z,30.2791,-87.5561,1.417,32.42,1111122 
DISL,ioos:station:DISL:PPTA:1,2014-09-05T08:00:00Z,30.2791,-87.5561,1.44,32.48,1111122 
DISL,ioos:station:DISL:PPTA:1,2014-09-05T08:30:00Z,30.2791,-87.5561,1.454,32.37,1111122 
DISL,ioos:station:DISL:PPTA:1,2014-09-05T09:00:00Z,30.2791,-87.5561,1.462,32.46,1111122 
DISL,ioos:station:DISL:PPTA:1,2014-09-05T09:30:00Z,30.2791,-87.5561,1.477,32.45,1111122 
DISL,ioos:station:DISL:PPTA:1,2014-09-05T10:00:00Z,30.2791,-87.5561,1.492,32.53,1111122 
DISL,ioos:station:DISL:PPTA:1,2014-09-05T10:30:00Z,30.2791,-87.5561,1.496,31.31,1111122 
DISL,ioos:station:DISL:PPTA:1,2014-09-05T11:00:00Z,30.2791,-87.5561,1.506,31.16,1111122 
DISL,ioos:station:DISL:PPTA:1,2014-09-05T11:30:00Z,30.2791,-87.5561,1.509,31.26,1111122 
DISL,ioos:station:DISL:PPTA:1,2014-09-05T12:00:00Z,30.2791,-87.5561,1.509,30.25,1111122 
DISL,ioos:station:DISL:PPTA:1,2014-09-05T12:30:00Z,30.2791,-87.5561,1.531,30.15,1111122 
DISL,ioos:station:DISL:PPTA:1,2014-09-05T13:00:00Z,30.2791,-87.5561,1.518,30.03,1111122 
DISL,ioos:station:DISL:PPTA:1,2014-09-05T13:30:00Z,30.2791,-87.5561,1.523,30.04,1111122 
DISL,ioos:station:DISL:PPTA:1,2014-09-05T14:00:00Z,30.2791,-87.5561,1.514,31.15,1111122 
DISL,ioos:station:DISL:PPTA:1,2014-09-05T14:30:00Z,30.2791,-87.5561,1.501,30.97,1111122 
DISL,ioos:station:DISL:PPTA:1,2014-09-05T15:00:00Z,30.2791,-87.5561,1.459,31.08,1111122 
DISL,ioos:station:DISL:PPTA:1,2014-09-05T15:30:00Z,30.2791,-87.5561,1.456,31.0,1111122 
DISL,ioos:station:DISL:PPTA:1,2014-09-05T16:00:00Z,30.2791,-87.5561,1.43,27.2,1111122 
DISL,ioos:station:DISL:PPTA:1,2014-09-05T16:30:00Z,30.2791,-87.5561,1.412,28.99,1111122 
DISL,ioos:station:DISL:PPTA:1,2014-09-05T17:00:00Z,30.2791,-87.5561,1.397,30.21,1111122 
DISL,ioos:station:DISL:PPTA:1,2014-09-05T17:30:00Z,30.2791,-87.5561,1.378,30.43,1111122 
DISL,ioos:station:DISL:PPTA:1,2014-09-05T18:00:00Z,30.2791,-87.5561,1.371,28.09,1111122 
DISL,ioos:station:DISL:PPTA:1,2014-09-05T18:30:00Z,30.2791,-87.5561,1.36,27.51,1111122 
DISL,ioos:station:DISL:PPTA:1,2014-09-05T19:00:00Z,30.2791,-87.5561,1.351,25.97,1111122 
DISL,ioos:station:DISL:PPTA:1,2014-09-05T19:30:00Z,30.2791,-87.5561,1.325,26.04,1111122 
DISL,ioos:station:DISL:PPTA:1,2014-09-05T20:00:00Z,30.2791,-87.5561,1.301,25.77,1111122 
DISL,ioos:station:DISL:PPTA:1,2014-09-05T20:30:00Z,30.2791,-87.5561,1.281,25.76,1111122 
DISL,ioos:station:DISL:PPTA:1,2014-09-05T21:00:00Z,30.2791,-87.5561,1.267,26.23,1111122 
DISL,ioos:station:DISL:PPTA:1,2014-09-05T21:30:00Z,30.2791,-87.5561,1.246,26.06,1111122 
DISL,ioos:station:DISL:PPTA:1,2014-09-05T22:00:00Z,30.2791,-87.5561,1.233,26.02,1111122 
DISL,ioos:station:DISL:PPTA:1,2014-09-05T22:30:00Z,30.2791,-87.5561,1.228,24.84,1111122 
DISL,ioos:station:DISL:PPTA:1,2014-09-05T23:00:00Z,30.2791,-87.5561,1.223,23.99,1111122 
DISL,ioos:station:DISL:PPTA:1,2014-09-05T23:30:00Z,30.2791,-87.5561,1.213,23.5,1111122 
DISL,ioos:station:DISL:PPTA:1,2014-09-06T00:00:00Z,30.2791,-87.5561,1.221,22.85,1111122 
DISL,ioos:station:DISL:PPTA:1,2014-09-06T00:30:00Z,30.2791,-87.5561,1.214,23.01,1111122 
DISL,ioos:station:DISL:PPTA:1,2014-09-06T01:00:00Z,30.2791,-87.5561,1.22,22.1,1111122 
DISL,ioos:station:DISL:PPTA:1,2014-09-06T01:30:00Z,30.2791,-87.5561,1.251,22.37,1111122 
DISL,ioos:station:DISL:PPTA:1,2014-09-06T02:00:00Z,30.2791,-87.5561,1.259,26.51,1111122 
DISL,ioos:station:DISL:PPTA:1,2014-09-06T02:30:00Z,30.2791,-87.5561,1.241,25.43,1111122 
DISL,ioos:station:DISL:PPTA:1,2014-09-06T03:00:00Z,30.2791,-87.5561,1.227,26.4,1111122 
DISL,ioos:station:DISL:PPTA:1,2014-09-06T03:30:00Z,30.2791,-87.5561,1.246,25.53,1111122 
DISL,ioos:station:DISL:PPTA:1,2014-09-06T04:00:00Z,30.2791,-87.5561,1.262,27.09,1111122 
DISL,ioos:station:DISL:PPTA:1,2014-09-06T04:30:00Z,30.2791,-87.5561,1.257,25.75,1111122 
DISL,ioos:station:DISL:PPTA:1,2014-09-06T05:00:00Z,30.2791,-87.5561,1.249,29.03,1111122 
DISL,ioos:station:DISL:PPTA:1,2014-09-06T05:30:00Z,30.2791,-87.5561,1.282,30.04,1111122 
DISL,ioos:station:DISL:PPTA:1,2014-09-06T06:00:00Z,30.2791,-87.5561,1.286,30.38,1111122 
DISL,ioos:station:DISL:PPTA:1,2014-09-06T06:30:00Z,30.2791,-87.5561,1.285,30.75,1111122 
DISL,ioos:station:DISL:PPTA:1,2014-09-06T07:00:00Z,30.2791,-87.5561,1.303,30.91,1111122 
DISL,ioos:station:DISL:PPTA:1,2014-09-06T07:30:00Z,30.2791,-87.5561,1.314,30.78,1111122 
DISL,ioos:station:DISL:PPTA:1,2014-09-06T08:00:00Z,30.2791,-87.5561,1.351,31.17,1111122 
DISL,ioos:station:DISL:PPTA:1,2014-09-06T08:30:00Z,30.2791,-87.5561,1.365,31.31,1111122 
DISL,ioos:station:DISL:PPTA:1,2014-09-06T09:00:00Z,30.2791,-87.5561,1.376,31.35,1111122 
DISL,ioos:station:DISL:PPTA:1,2014-09-06T09:30:00Z,30.2791,-87.5561,1.385,31.35,1111122 
DISL,ioos:station:DISL:PPTA:1,2014-09-06T10:00:00Z,30.2791,-87.5561,1.4,31.5,1111122 
DISL,ioos:station:DISL:PPTA:1,2014-09-06T10:30:00Z,30.2791,-87.5561,1.421,31.42,1111122 
DISL,ioos:station:DISL:PPTA:1,2014-09-06T11:00:00Z,30.2791,-87.5561,1.437,31.67,1111122 
DISL,ioos:station:DISL:PPTA:1,2014-09-06T11:30:00Z,30.2791,-87.5561,1.446,31.38,1111122 
DISL,ioos:station:DISL:PPTA:1,2014-09-06T12:00:00Z,30.2791,-87.5561,1.458,31.86,1111122 
DISL,ioos:station:DISL:PPTA:1,2014-09-06T12:30:00Z,30.2791,-87.5561,1.47,31.66,1111122 
DISL,ioos:station:DISL:PPTA:1,2014-09-06T13:00:00Z,30.2791,-87.5561,1.473,31.89,1111122 
DISL,ioos:station:DISL:PPTA:1,2014-09-06T13:30:00Z,30.2791,-87.5561,1.473,31.91,1111122 
DISL,ioos:station:DISL:PPTA:1,2014-09-06T14:00:00Z,30.2791,-87.5561,1.464,31.89,1111122 